[[{"header":{"parameterUnit":"m.s-1","parameterCategory":1,"la1":30.2991,"la2":30.254,"lo1":-89.0895,"lo2":-89.0444,"dy":0.0017,"dx":0.0017,"nx":28,"ny":28,"refTime":"2024-05-20T21:00:00:Z","depth":0,"parameterNumber":2,"parameterNumberName":"U-component_of_WINDS"},"data":[0,0,0,0,0,0,0,0,0,0,0,0,0,0,0,0,0,0,0,0,0,0,0,0,0,0,0,0,0,0,0,0,0,0,0,0,0,0,0,0,0,0,0,0,0,0,0,0,0,0,0,0,0,0,0,0,0,0,-1.6746,-1.6747,0,-1.681,-1.681,-1.6811,-1.6812,-1.6811,-1.6811,-1.681,-1.6876,-1.6878,-1.6881,0,0,0,0,0,0,0,0,0,0,0,0,0,-1.6628,-1.663,-1.6746,-1.6747,-1.6748,-1.6809,-1.681,-1.6811,-1.6812,-1.6811,-1.681,-1.6809,-1.6875,-1.6878,-1.6881,0,0,0,0,0,0,0,0,0,0,0,0,0,-1.6684,-1.663,-1.6746,-1.6756,-1.6757,-1.6809,-1.681,-1.6811,-1.6812,-1.6811,-1.681,-1.6809,-1.6874,-1.6878,-1.6881,-1.6928,0,0,-1.6893,-1.6894,0,0,0,0,0,0,0,0,-1.6681,-1.6688,-1.6753,-1.6755,-1.6757,-1.6802,-1.6793,-1.6851,-1.6813,-1.6792,-1.681,-1.6808,-1.6852,-1.6858,-1.6872,-1.6931,-1.6934,-1.6893,-1.6895,-1.6897,-1.6898,0,0,0,0,0,0,0,-1.6677,-1.6685,-1.6771,-1.6754,-1.6757,-1.6757,-1.6764,-1.6804,-1.6828,-1.6793,-1.6794,-1.6801,-1.6853,-1.6869,-1.6874,-1.6935,-1.6893,-1.6896,-1.6899,-1.69,-1.7037,-1.7038,0,0,0,0,0,0,-1.6671,-1.6682,-1.6769,-1.6773,-1.6715,-1.676,-1.6768,-1.6789,-1.6827,-1.6832,-1.6802,-1.6801,-1.6863,-1.6869,-1.6876,-1.6934,-1.6897,-1.69,-1.6903,-1.7035,-1.7037,-1.7038,0,0,0,0,0,0,-1.6668,-1.6678,-1.6767,-1.6728,-1.6739,-1.6764,-1.6787,-1.679,-1.6806,-1.6834,-1.6838,-1.6813,-1.6862,-1.6871,-1.6915,-1.6936,-1.6902,-1.6906,-1.7034,-1.7036,-1.7038,-1.7049,0,0,0,0,0,0,-1.6665,-1.6678,-1.6695,-1.6728,-1.6741,-1.6804,-1.6788,-1.6792,-1.6812,-1.6811,-1.6846,-1.685,-1.6862,-1.691,-1.6919,-1.694,-1.6908,-1.7032,-1.7034,-1.7037,-1.7047,-1.7051,-1.7055,0,0,0,0,0,-1.6661,-1.6696,-1.6696,-1.6707,-1.6764,-1.6806,-1.6813,-1.6825,-1.6814,-1.6832,-1.685,-1.6849,-1.6932,-1.6914,-1.6925,-1.6948,-1.7031,-1.7034,-1.7037,-1.7045,-1.705,-1.7055,0,0,0,0,0,0,-1.6665,-1.67,-1.6701,-1.6748,-1.6774,-1.6806,-1.6829,-1.683,-1.686,-1.6858,-1.6872,-1.688,-1.6924,-1.6941,-1.692,-1.6995,-1.698,-1.6985,-1.6983,-1.6988,-1.6992,-1.6987,-1.6912,0,0,0,0,0,-1.6671,-1.6702,-1.6732,-1.677,-1.6783,-1.6804,-1.6823,-1.683,-1.6857,-1.6868,-1.6889,-1.6916,-1.6948,-1.6969,-1.7,-1.7049,-1.7057,-1.707,-1.7074,-1.7078,-1.7082,-1.7109,-1.7115,-1.7049,-1.7048,-1.7048,0,0,-1.6685,-1.6708,-1.6727,-1.6772,-1.6793,-1.6824,-1.6813,-1.6847,-1.6871,-1.6873,-1.6916,-1.6933,-1.6964,-1.7011,-1.7033,-1.7026,-1.7102,-1.7082,-1.7084,-1.7086,-1.7113,-1.7119,-1.7125,-1.7051,-1.705,-1.705,0,0,-1.6726,-1.6747,-1.6781,-1.6802,-1.6834,-1.6847,-1.6856,-1.6888,-1.6899,-1.6942,-1.6945,-1.6974,-1.7029,-1.7051,-1.7069,-1.712,-1.712,-1.713,-1.715,-1.7177,-1.7182,-1.7187,-1.7204,-1.7211,-1.7134,-1.7134,-1.7134,0,-1.6739,-1.6787,-1.6799,-1.6833,-1.6853,-1.6857,-1.6892,-1.6912,-1.6952,-1.6966,-1.6958,-1.7027,-1.7049,-1.7101,-1.7113,-1.7128,-1.7138,-1.7125,-1.718,-1.7185,-1.719,-1.7207,-1.7213,-1.7135,-1.7135,-1.7135,-1.7135,0,-1.6801,-1.6834,-1.6858,-1.6897,-1.6919,-1.6954,-1.6972,-1.6994,-1.6999,-1.7014,-1.7059,-1.7084,-1.7121,-1.7134,-1.714,-1.7187,-1.7182,-1.7177,-1.7162,-1.7197,-1.7213,-1.722,-1.7136,-1.7136,-1.7136,-1.7135,0,0,-1.6846,-1.6891,-1.6899,-1.6917,-1.6952,-1.6978,-1.7014,-1.7049,-1.7067,-1.7095,-1.7125,-1.7172,-1.7168,-1.7189,-1.7197,-1.7221,-1.7259,-1.7213,-1.7214,-1.722,-1.7313,-1.7316,-1.7323,-1.726,-1.7261,-1.7262,-1.731,0,-1.689,-1.6952,-1.6964,-1.7018,-1.7049,-1.7053,-1.7084,-1.7109,-1.7124,-1.7153,-1.717,-1.7203,-1.7194,-1.7207,-1.723,-1.7249,-1.7277,-1.7246,-1.7288,-1.7289,-1.7279,-1.7332,-1.7335,-1.7379,-1.7316,-1.7318,-1.7318,0,-1.695,-1.6979,-1.7036,-1.7067,-1.7081,-1.7108,-1.7141,-1.7169,-1.7198,-1.7207,-1.7231,-1.7237,-1.7274,-1.7258,-1.731,-1.7288,-1.7306,-1.7318,-1.732,-1.7324,-1.7305,-1.7337,-1.7394,-1.74,-1.7329,-1.7328,-1.7327,0,-1.6976,-1.703,-1.7071,-1.7086,-1.7124,-1.7143,-1.7159,-1.7187,-1.7208,-1.7238,-1.7251,-1.7285,-1.7304,-1.733,-1.7346,-1.7332,-1.7396,-1.7381,-1.7405,-1.7405,-1.7418,-1.7417,-1.7478,-1.743,-1.743,-1.743,-1.743,0,-1.7024,-1.7059,-1.7083,-1.7108,-1.7147,-1.7162,-1.72,-1.7217,-1.7242,-1.727,-1.7277,-1.7304,-1.7323,-1.7353,-1.7365,-1.7406,-1.7415,-1.7423,-1.7426,-1.7422,-1.7421,-1.7434,-1.7431,-1.7432,-1.7431,-1.7431,-1.7431,0,-1.706,-1.7078,-1.7123,-1.7155,-1.7164,-1.7191,-1.7219,-1.7244,-1.7259,-1.7296,-1.7305,-1.7329,-1.7365,-1.7383,-1.7427,-1.7436,-1.7482,-1.7483,-1.7472,-1.7473,-1.7495,-1.7493,-1.7566,-1.7577,-1.7523,-1.7523,-1.7524,0,-1.7089,-1.7116,-1.7151,-1.7171,-1.7188,-1.7219,-1.724,-1.7256,-1.7278,-1.7313,-1.7334,-1.737,-1.7399,-1.7456,-1.7477,-1.7512,-1.7514,-1.7537,-1.7519,-1.7514,-1.7514,-1.7512,-1.7514,-1.754,-1.7541,-1.7541,-1.7541,0,-1.7139,-1.7147,-1.7176,-1.721,-1.7234,-1.7261,-1.7288,-1.7304,-1.7324,-1.7348,-1.7384,-1.7407,-1.7452,-1.7488,-1.7524,-1.7542,-1.7545,-1.7547,-1.7554,-1.755,-1.7543,-1.7547,-1.748,-1.7545,-1.7545,-1.7544,-1.7544,-1.7544,-1.7173,-1.7196,-1.7225,-1.7258,-1.7279,-1.7304,-1.7329,-1.7347,-1.7378,-1.7415,-1.7423,-1.7461,-1.7491,-1.7539,-1.7558,-1.7589,-1.7584,-1.7595,-1.7597,-1.76,-1.76,-1.7538,-1.7596,-1.7596,-1.7596,-1.7596,-1.7595,0,-1.7222,-1.7241,-1.7271,-1.7308,-1.7334,-1.7335,-1.7365,-1.7386,-1.742,-1.7447,-1.7475,-1.7517,-1.7552,-1.7577,-1.7612,-1.7632,-1.7634,-1.7641,-1.7639,-1.7643,-1.7603,-1.7593,-1.7638,-1.7638,-1.7638,-1.7638,-1.7638,-1.7638,-1.7251,-1.7292,-1.7303,-1.7354,-1.7372,-1.7409,-1.7426,-1.7449,-1.7471,-1.7517,-1.7546,-1.7561,-1.7588,-1.7625,-1.7657,-1.7664,-1.7676,-1.7683,-1.7689,-1.7651,-1.7646,-1.7642,-1.7632,-1.7685,-1.7685,-1.7727,-1.7727,-1.7728]},{"header":{"parameterUnit":"m.s-1","parameterCategory":1,"la1":30.2991,"la2":30.254,"lo1":-89.0895,"lo2":-89.0444,"dy":0.0017,"dx":0.0017,"nx":28,"ny":28,"refTime":"2024-05-20T21:00:00:Z","depth":0,"parameterNumber":3,"parameterNumberName":"V-component_of_WINDS"},"data":[0,0,0,0,0,0,0,0,0,0,0,0,0,0,0,0,0,0,0,0,0,0,0,0,0,0,0,0,0,0,0,0,0,0,0,0,0,0,0,0,0,0,0,0,0,0,0,0,0,0,0,0,0,0,0,0,0,0,2.5442,2.5442,0,2.5469,2.5469,2.5469,2.5453,2.5453,2.5452,2.5451,2.5476,2.5477,2.5478,0,0,0,0,0,0,0,0,0,0,0,0,0,2.5375,2.5376,2.5442,2.5442,2.5443,2.5469,2.5469,2.5469,2.5454,2.5453,2.5452,2.5451,2.5475,2.5477,2.5478,0,0,0,0,0,0,0,0,0,0,0,0,0,2.5403,2.5377,2.5442,2.5438,2.5438,2.5469,2.5469,2.5469,2.5454,2.5453,2.5451,2.545,2.5475,2.5477,2.5479,2.5514,0,0,2.5485,2.5486,0,0,0,0,0,0,0,0,2.5401,2.5406,2.5438,2.5438,2.5438,2.5457,2.5454,2.5484,2.5454,2.5448,2.5451,2.545,2.547,2.5472,2.548,2.5515,2.5516,2.5485,2.5486,2.5487,2.5488,0,0,0,0,0,0,0,2.54,2.5404,2.5453,2.5439,2.5439,2.5434,2.5437,2.546,2.5465,2.5448,2.5447,2.5451,2.547,2.5478,2.548,2.5516,2.5485,2.5487,2.5488,2.5489,2.5582,2.5583,0,0,0,0,0,0,2.5398,2.5403,2.5452,2.5453,2.5417,2.5436,2.5439,2.5452,2.5464,2.5465,2.5451,2.545,2.5475,2.5478,2.5481,2.5523,2.5487,2.5489,2.549,2.5581,2.5582,2.5584,0,0,0,0,0,0,2.5397,2.5403,2.5451,2.5428,2.5434,2.5439,2.5453,2.5453,2.5461,2.5467,2.5468,2.5459,2.5474,2.5478,2.5506,2.5524,2.549,2.5492,2.5579,2.5581,2.5583,2.5608,0,0,0,0,0,0,2.5395,2.5402,2.5416,2.5428,2.5435,2.5476,2.5454,2.5454,2.5465,2.5463,2.5474,2.5475,2.5474,2.5503,2.5508,2.5526,2.5493,2.5578,2.558,2.5582,2.5605,2.561,2.5615,0,0,0,0,0,2.5393,2.5422,2.5417,2.5423,2.5453,2.5477,2.5481,2.5479,2.5466,2.548,2.5484,2.5475,2.5521,2.5506,2.5512,2.553,2.5576,2.5579,2.5582,2.5603,2.5609,2.5614,0,0,0,0,0,0,2.5411,2.5423,2.5418,2.5452,2.5464,2.5474,2.5492,2.5486,2.55,2.5498,2.5494,2.5497,2.5526,2.5531,2.5514,2.5565,2.5547,2.5551,2.5561,2.5567,2.5571,2.5569,2.5495,0,0,0,0,0,2.5419,2.5438,2.5448,2.5477,2.5483,2.5487,2.5497,2.5495,2.5507,2.5511,2.5517,2.5528,2.5545,2.5556,2.5572,2.5606,2.5608,2.5622,2.5626,2.563,2.5633,2.5652,2.5658,2.5593,2.5593,2.5593,0,0,2.5435,2.5444,2.5457,2.5481,2.549,2.5509,2.5491,2.5512,2.5527,2.5514,2.5541,2.5546,2.5558,2.5589,2.5603,2.5594,2.5652,2.5634,2.5637,2.5638,2.5655,2.5662,2.5667,2.5595,2.5594,2.5594,0,0,2.5475,2.5485,2.551,2.5519,2.5533,2.5536,2.5542,2.5553,2.5556,2.5584,2.5575,2.5591,2.5621,2.563,2.5638,2.5682,2.5674,2.5688,2.5711,2.5729,2.5734,2.5739,2.5754,2.576,2.5691,2.5691,2.5691,0,2.5494,2.5524,2.5523,2.5546,2.5557,2.5547,2.5572,2.5581,2.5599,2.5607,2.5596,2.5633,2.5641,2.5674,2.5685,2.5692,2.5698,2.5686,2.5734,2.5738,2.5742,2.5757,2.5763,2.5693,2.5692,2.5692,2.5692,0,2.5546,2.5567,2.5586,2.5605,2.5618,2.5641,2.5643,2.5656,2.5653,2.5656,2.5684,2.5692,2.571,2.5718,2.5715,2.5751,2.5745,2.5734,2.5716,2.575,2.5764,2.577,2.5695,2.5694,2.5694,2.5693,0,0,2.5598,2.5617,2.5624,2.5632,2.5647,2.5663,2.5686,2.5705,2.5716,2.5728,2.5747,2.5773,2.5764,2.5773,2.5771,2.5787,2.5821,2.5774,2.5774,2.5782,2.5861,2.5869,2.5876,2.5816,2.5817,2.5818,2.586,0,2.5639,2.5681,2.5681,2.5719,2.5738,2.573,2.575,2.5761,2.5765,2.5781,2.5784,2.5802,2.5789,2.5794,2.581,2.5814,2.5837,2.5811,2.5833,2.5834,2.583,2.5883,2.5891,2.5931,2.5866,2.5867,2.5867,0,2.5693,2.5709,2.5749,2.5762,2.577,2.5788,2.5805,2.5821,2.5833,2.5834,2.5845,2.5841,2.5864,2.5845,2.5876,2.5858,2.5867,2.587,2.5872,2.5874,2.5852,2.5886,2.5943,2.5949,2.5876,2.5875,2.5875,0,2.5727,2.5758,2.5786,2.5794,2.5809,2.5822,2.5829,2.584,2.5851,2.5866,2.5873,2.5889,2.5898,2.5911,2.5911,2.5897,2.5942,2.5923,2.5944,2.5944,2.5953,2.5953,2.6013,2.5959,2.5959,2.5959,2.5959,0,2.5772,2.5797,2.5802,2.5819,2.5847,2.5846,2.5873,2.5878,2.5889,2.5906,2.59,2.5916,2.5915,2.5932,2.5931,2.5957,2.5961,2.5963,2.5962,2.5963,2.5963,2.5969,2.5966,2.5961,2.596,2.596,2.596,0,2.5815,2.5819,2.5849,2.5861,2.5865,2.5885,2.5895,2.5911,2.5914,2.5937,2.5942,2.5947,2.5966,2.5967,2.5989,2.5989,2.602,2.6017,2.6016,2.6016,2.6036,2.6034,2.6102,2.611,2.6052,2.6052,2.6053,0,2.5844,2.5863,2.5878,2.589,2.5898,2.5917,2.5929,2.5929,2.5941,2.5956,2.5971,2.5989,2.6004,2.6035,2.604,2.6057,2.6054,2.6076,2.6056,2.6057,2.6054,2.6053,2.6055,2.608,2.6081,2.6081,2.6082,0,2.5895,2.5896,2.5914,2.5932,2.5947,2.5961,2.5974,2.5984,2.5985,2.5999,2.602,2.6031,2.6054,2.6073,2.6089,2.6095,2.6089,2.6088,2.6094,2.6095,2.6094,2.6095,2.6027,2.6086,2.6086,2.6086,2.6085,2.6085,2.5932,2.5948,2.5962,2.5982,2.5992,2.6004,2.602,2.6026,2.6043,2.6062,2.6061,2.6083,2.6095,2.6116,2.6124,2.6141,2.6133,2.6141,2.6143,2.6145,2.6147,2.6091,2.6144,2.6143,2.6143,2.6143,2.6143,0,2.5982,2.5991,2.6009,2.6028,2.6044,2.6038,2.6052,2.6065,2.6085,2.6097,2.6112,2.6135,2.6153,2.616,2.6177,2.6189,2.6187,2.6194,2.6193,2.6194,2.6153,2.6146,2.6196,2.6196,2.6196,2.6196,2.6196,2.6196,2.6011,2.6039,2.6042,2.6075,2.6082,2.6105,2.6114,2.6125,2.6135,2.6161,2.6177,2.6181,2.619,2.6209,2.6225,2.6226,2.6233,2.6241,2.6241,2.6202,2.6197,2.6192,2.6186,2.6243,2.6243,2.6281,2.6282,2.6282]}]]